This is the latest recevied weather packets stored in our database for station/object K7CTM. If no packets are shown the sender has not sent any weather packets the latest 10 day(s).
| Time | Temp. | Humidity | Pressure | Rain* | Wind** | Luminosity | Snow |
|---|---|---|---|---|---|---|---|
| 1787769670 | 28.33° C | 32% | 1032.4 hPa | 0 mm | - | 739 W/m² | - |
| 1787769368 | 27.78° C | 33% | 1032.4 hPa | 0 mm | - | 706 W/m² | - |
| 1787769063 | 27.78° C | 33% | 1032.4 hPa | 0 mm | - | 689 W/m² | - |
| 1787768758 | 27.78° C | 33% | 1032.7 hPa | 0 mm | - | 697 W/m² | - |
| 1787768455 | 27.78° C | 32% | 1032.7 hPa | 0 mm | - | 728 W/m² | - |
| 1787768150 | 27.78° C | 33% | 1032.9 hPa | 0 mm | - | 672 W/m² | - |
| 1787767845 | 27.22° C | 33% | 1032.9 hPa | 0 mm | - | 630 W/m² | - |
| 1787767542 | 27.78° C | 33% | 1032.9 hPa | 0 mm | - | 689 W/m² | - |
| 1787767240 | 27.78° C | 33% | 1032.9 hPa | 0 mm | - | 703 W/m² | - |
| 1787766939 | 26.11° C | 34% | 1033.2 hPa | 0 mm | - | 714 W/m² | - |
| 1787766633 | 27.22° C | 33% | 1033.2 hPa | 0 mm | - | 257 W/m² | - |
| 1787766332 | 27.22° C | 33% | 1033.2 hPa | 0 mm | - | 517 W/m² | - |
| 1787766027 | 26.11° C | 34% | 1033.1 hPa | 0 mm | - | 669 W/m² | - |
| 1787765723 | 25.56° C | 36% | 1033 hPa | 0 mm | - | 628 W/m² | - |
| 1787765420 | 26.11° C | 35% | 1033.1 hPa | 0 mm | - | 659 W/m² | - |
| 1787765119 | 25.56° C | 35% | 1033.5 hPa | 0 mm | - | 603 W/m² | - |
| 1787764814 | 25° C | 36% | 1033.6 hPa | 0 mm | - | 510 W/m² | - |
| 1787764509 | 25° C | 37% | 1033.3 hPa | 0 mm | - | 700 W/m² | - |
| 1787764204 | 24.44° C | 39% | 1033.6 hPa | 0 mm | - | 707 W/m² | - |
| 1787763900 | 24.44° C | 39% | 1033.2 hPa | 0 mm | - | 688 W/m² | - |
* Rain latest hour (hover to see other rain measurements)
** Current wind speed in m/s (hover to see current wind gust speed)